map of STM home
STM - Airport
Location
City:  Santarém, Pará, Brazil
Name:Santarém - Maestro Wilson Fonseca Airport
ICAO:SBSN
IATA:STM

Details
Type:Airport (Aerodrome, Airfield)
Use:Public/Civil, International (customs port of entry)
Latitude:2°25'21"S (-2.422430)
Longitude:54°47'34"W (-54.792788)
Datum:WGS 1984
Elevation:198 ft (60 m)
Variation:18.47°W (WMM2015v2 magnetic declination)
-0.08° annual change
Runways:1
Longest:7874 × 148 ft (2400 × 45 m), paved

Time
Time Zone:UTC-3
Local Time:

Weather
METAR:SBSN 041400Z 09009KT 9999 SCT017 SCT100 27/26 Q1013
TAF:SBSN 041000Z 0412/0512 12008KT 9999 FEW015 TX30/0417Z TN26/0508Z
BECMG 0414/0416 09010KT FEW020
BECMG 0416/0418 SCT020
BECMG 0500/0502 FEW015
RMK PFF

Related Locations
Nearby:
Farthest:MAL: 12381 mi / 19926 km
Mangole [Falabisahaya Airport], Mangole Island, MA, ID

Find:

   beyond  
but within

Other Information
Maps:
NOTAMs:
Links:
Sources:

  
  • flag of Brazil
  • flag of Pará
  

Sectional Chart

Flight Planning
at skyvector.com

Satellite Image

Google Maps Satellite view

 

Copyright © 2004-2019 Karl L. Swartz. All rights reserved.
The Great Circle Mapper name and logo are trademarks of the Great Circle Mapper.
All other trademarks mentioned herein belong to their respective owners.
Please see credits for attibutions and further copyright information.

  Follow gcmap on Facebook Follow gcmap on Twitter GCmap on LinkedIn

hCard Microformat

Geo Microformat